Regional Weather Roundup
Issued by NWS

Home | Current Version | Previous Version | Graphics & Text | Print | Product List | Glossary On
Versions: 1 2 3 4 5 6 7 8 9 10 11 12 13 14 15 16 17 18 19 20 21 22 23 24 25 26 27 28 29 30 31 32 33 34 35 36 37 38 39 40 41 42 43 44 45 46 47 48 49 50
000
ASUS43 KMPX 051110
RWRMN
WEATHER ROUNDUP FOR MINNESOTA
NATIONAL WEATHER SERVICE TWIN CITIES/CHANHASSEN MN
600 AM CDT SUN JUL 05 2015


NOTE: "FAIR" INDICATES FEW OR NO CLOUDS BELOW 12,000 FEET WITH NO
SIGNIFICANT WEATHER AND/OR OBSTRUCTIONS TO VISIBILITY. N/A MEANS
CURRENT SKY AND/OR WEATHER CONDITIONS ARE NOT AVAILABLE.

MNZ060>063-068>070-051200-
   Twin Cities Metro

CITY           SKY/WX    TMP DP  RH WIND       PRES   REMARKS
TWIN CITIES    PTCLDY    67  59  75 S8        29.95R
ST PAUL        CLEAR     64  61  90 CALM      29.95R
CRYSTAL        CLEAR     66  59  78 S6        29.92R
BLAINE         CLEAR     66  63  88 SE6       29.94R
LAKEVILLE      CLEAR     57  57 100 CALM      29.95R
EDEN PRAIRIE   CLEAR     66  59  78 S7        29.93R
SOUTH ST PAUL  CLEAR     64  60  87 CALM      29.95R
LAKE ELMO      FAIR      63  61  94 SE5       29.97R
$$
MNZ001>005-007-008-013>017-022>024-027-028-051200-
   Northwest Minnesota

CITY           SKY/WX    TMP DP  RH WIND       PRES   REMARKS
BEMIDJI        CLOUDY    63  62  96 SE9       29.81F
HALLOCK        PTCLDY    63  61  94 N6        29.74R
ROSEAU         MOCLDY    63  57  82 SE7       29.77R
WARROAD        MOCLDY    63  59  88 S6        29.77S
THIEF RVR FALL CLOUDY    64  63  94 S9        29.80R
CROOKSTON      CLOUDY    66  66 100 S15       29.80R
FOSSTON        CLOUDY    63  61  94 S9        29.84R
DETROIT LAKES  MOCLDY    68  64  88 E7        29.85R FOG
MOORHEAD       PTCLDY    70  64  83 SE8       29.78R
PARK RAPIDS    CLOUDY    69  63  81 E7        29.87F HAZE
MAHNOMEN       FAIR      68  62  80 SE8       29.83R
$$
MNZ006-009>011-018-025>026-051200-
   North Central Minnesota

CITY           SKY/WX    TMP DP  RH WIND       PRES   REMARKS
BAUDETTE       CLOUDY    65  62  90 S12       29.77F
INTL FALLS     CLOUDY    64  62  93 CALM      29.79F
WASKISH        CLOUDY    64  63  94 SE3       29.80F
BIG FORK       CLOUDY    64  63  94 S5        29.85F FOG
LONGVILLE      CLOUDY    66  64  94 CALM      29.89S
GRAND RAPIDS   CLOUDY    63  61  94 SE6       29.90R
CRANE LAKE     CLOUDY    63  61  94 S3        29.86F
ORR            CLOUDY    61  57  88 CALM      29.84F FOG
COOK           CLOUDY    64  61  88 S5        29.88S FOG
WALKER         FAIR      67  63  86 S5        29.85F
$$
MNZ012-019>021-037-051200-
   Northeast Minnesota

CITY           SKY/WX    TMP DP  RH WIND       PRES   REMARKS
DULUTH         FAIR      57  53  86 SE6       29.93S
ELY            CLOUDY    66  61  82 SW8       29.89S
HIBBING        CLOUDY    55  54  96 CALM      29.90S FOG
DULUTH HARBOR  PTCLDY    61  57  88 CALM      29.93S
TWO HARBORS    PTCLDY    55  50  82 CALM      29.91F
SILVER BAY     PTCLDY    54  52  94 CALM      29.91S FOG
GRAND MARAIS     N/A     49  48  97 CALM      29.92R
G MARAIS ARPRT PTCLDY    55  54  94 SW5       29.94S FOG
$$
MNZ029>031-032-039>041-046>048-054>057-064-051200-
   West Central Minnesota

CITY           SKY/WX    TMP DP  RH WIND       PRES   REMARKS
FERGUS FALLS   MOCLDY    68  63  83 SE13      29.81R
WHEATON        MOCLDY    64  63  94 SE12      29.80F
MORRIS         MOCLDY    66  63  88 SE13      29.83S FOG
ALEXANDRIA     MOCLDY    65  61  87 SE9       29.88S
ELBOW LAKE     FAIR      66  63  90 SE12      29.83S
WADENA         CLOUDY    64  63  94 SE7       29.84F FOG
GLENWOOD       PTCLDY    66  61  82 S12       29.88S
APPLETON       MOCLDY    68  63  83 SE8       29.84R
BENSON         MOCLDY    66  61  82 S8        29.85F
ORTONVILLE     MOCLDY    66  63  88 SE10      29.81F
MADISON        CLOUDY    66  63  88 S6        29.84R
WILLMAR        FAIR      66  61  82 SE8       29.90R
$$
MNZ033>034-036-042>043-049>051-058-059-051200-
   Central Minnesota

CITY           SKY/WX    TMP DP  RH WIND       PRES   REMARKS
ST CLOUD       MOCLDY    61  60  97 SE7       29.91S FOG
SAUK CENTRE    FAIR      62  60  93 SE6       29.89S
PAYNESVILLE    PTCLDY    62  59  89 SE8       29.91S
AITKIN         CLOUDY    66  61  82 SE5       29.89S HAZE
PINE RIVER     CLOUDY    64  63  94 CALM      29.92S FOG
BRAINERD       CLOUDY    64  61  90 S6        29.89S FOG
STAPLES        CLOUDY    64  61  88 SE7       29.86F
LONG PRAIRIE   FAIR      61  59  94 SE8       29.89S
LITTLE FALLS   CLOUDY    63  59  88 SE5       29.90S FOG
LITCHFIELD     PTCLDY    66  63  88 S3        29.92R
BUFFALO        PTCLDY    65  58  80 S5        29.94R
MAPLE LAKE     PTCLDY    64  61  90 SE3       29.93R
$$
MNZ037-044-045-052-053-051200-
   East Central Minnesota

CITY           SKY/WX    TMP DP  RH WIND       PRES   REMARKS
PRINCETON      PTCLDY    64  61  88 CALM      29.92F
MORA           MOCLDY    59  55  88 CALM      29.94S FOG
CAMBRIDGE      PTCLDY    66  55  68 SE3       29.91S
RUSH CITY      PTCLDY    62  59  91 S3        29.94S
MOOSE LAKE     FOG       55  54  94 CALM      29.91R VSB 1
HINCKLEY       FAIR      63  63 100 CALM      29.93S FOG
CLOQUET        MOCLDY    55  54  94 SE6       29.93R FOG
MCGREGOR       CLOUDY    63  61  94 S5        29.92R
$$
MNZ071>073-080-081-089-090-097-098-051200-
   Southwest Minnesota

CITY           SKY/WX    TMP DP  RH WIND       PRES   REMARKS
MONTEVIDEO     CLOUDY    66  63  88 S7        29.87R
GRANITE FALLS  CLOUDY    65  61  86 SE7       29.89R
CANBY          CLOUDY    72  62  72 S10G17    29.87R
MARSHALL       CLOUDY    72  61  68 S6        29.87R
REDWOOD FALLS  MOCLDY    63  60  90 SE7       29.89R
OLIVIA         PTCLDY    61  55  82 SE8       29.89R
PIPESTONE      CLOUDY    68  63  83 S9        29.90R
WINDOM         CLOUDY    70  61  73 S8        29.92R
WORTHINGTON    CLOUDY    64  57  77 S10       29.93R
JACKSON        CLOUDY    64  59  82 S8        29.94R
TRACY          CLOUDY    70  62  76 S12       29.88S
SLAYTON        CLOUDY    67  62  83 S12       29.92S
$$
MNZ065>067-074>077-082>085-091>093-051200-
   South Central Minnesota

CITY           SKY/WX    TMP DP  RH WIND       PRES   REMARKS
MANKATO        PTCLDY    63  57  82 SE9       29.93S
NEW ULM        PTCLDY    61  61 100 S7        29.92R
ST JAMES       MOCLDY    64  61  88 S6        29.93R
FAIRMONT       MOCLDY    63  55  77 S10       29.93S
GLENCOE        PTCLDY    64  61  92 SE3       29.92S
FARIBAULT      CLEAR     64  59  82 S6        29.96R
OWATONNA       CLEAR     63  57  82 SE10      29.95F
WASECA         CLEAR     63  57  82 S7        29.96F
ALBERT LEA     CLEAR     64  59  82 S7        29.97S
$$
MNZ078>079-086>088-094>096-051200-
   Southeast Minnesota

CITY           SKY/WX    TMP DP  RH WIND       PRES   REMARKS
ROCHESTER      CLEAR     60  57  89 S7        30.01R
RED WING       CLEAR     66  59  77 S3        29.96R
STANTON        CLEAR     63  57  82 S5        29.95R
DODGE CENTER   CLEAR     63  59  88 S8        29.98R
WINONA         CLEAR     63  59  88 E3        30.00S
AUSTIN         CLEAR     63  59  88 CALM      29.98S
PRESTON        CLEAR     60  56  89 S3        30.02R
$$
ABBREVIATIONS USED IN REMARKS
   TC - TEMPERATURES IN CELSIUS
  WCI - WIND CHILL INDEX
   HX - HEAT INDEX
  VSB - VISIBILITY
$$



USA.gov is the U.S. government's official web portal to all federal, state and local government web resources and services.